N75704 CYXU-CYXU

Flight info

Callsign N75704
Flight time 0h 4m
Altitude 1100
Route CYXU CLOSED TRAFFIC
Aircraft C172/L-S/C

Departure

Time 2026-04-20 17:22
Airport London International Airport (CYXU)

Arrival

Time 2026-04-20 17:26
Airport London International Airport (CYXU)
Time Latitude Longitude Altitude Speed Heading
2026-04-20 17:11 43.02795 -81.14723 899 ft 0 kts 235°
2026-04-20 17:19 43.02793 -81.14732 899 ft 4 kts 287°
2026-04-20 17:19 43.02811 -81.14734 899 ft 2 kts 13°
2026-04-20 17:20 43.02852 -81.14685 898 ft 5 kts 30°
2026-04-20 17:20 43.02909 -81.14629 897 ft 8 kts 45°
2026-04-20 17:20 43.02924 -81.14605 897 ft 0 kts 46°
2026-04-20 17:21 43.02972 -81.14541 899 ft 14 kts 26°
2026-04-20 17:21 43.03057 -81.14600 898 ft 28 kts 315°
2026-04-20 17:21 43.03325 -81.14932 937 ft 68 kts 319°
2026-04-20 17:21 43.03722 -81.15378 1098 ft 80 kts 317°
2026-04-20 17:22 43.04132 -81.15900 1401 ft 74 kts 315°
2026-04-20 17:22 43.04538 -81.16325 1708 ft 79 kts 336°
2026-04-20 17:22 43.05112 -81.16335 1898 ft 93 kts 24°
2026-04-20 17:22 43.05502 -81.15587 1889 ft 100 kts 54°
2026-04-20 17:23 43.05756 -81.14726 1892 ft 103 kts 85°
2026-04-20 17:23 43.05427 -81.13809 1811 ft 119 kts 136°
2026-04-20 17:23 43.04789 -81.13021 1685 ft 125 kts 141°
2026-04-20 17:23 43.04157 -81.12295 1655 ft 115 kts 141°
2026-04-20 17:24 43.03574 -81.11643 1726 ft 105 kts 146°
2026-04-20 17:24 43.02981 -81.11080 1729 ft 102 kts 147°
2026-04-20 17:24 43.02390 -81.10982 1718 ft 83 kts 219°
2026-04-20 17:24 43.01961 -81.11455 1647 ft 79 kts 232°
2026-04-20 17:25 43.01546 -81.11980 1549 ft 82 kts 234°
2026-04-20 17:25 43.01456 -81.12632 1385 ft 78 kts 310°
2026-04-20 17:25 43.01859 -81.13154 1160 ft 80 kts 316°
2026-04-20 17:25 43.02233 -81.13601 1011 ft 63 kts 315°
2026-04-20 17:26 43.02531 -81.13964 905 ft 53 kts 312°
2026-04-20 17:26 43.02756 -81.14240 900 ft 34 kts 318°
2026-04-20 17:26 43.03004 -81.14535 915 ft 66 kts 317°
2026-04-20 17:26 43.03380 -81.14947 1124 ft 72 kts 317°
2026-04-20 17:27 43.03778 -81.15461 1307 ft 82 kts 315°
2026-04-20 17:27 43.04206 -81.16021 1583 ft 81 kts 314°
2026-04-20 17:27 43.04674 -81.16422 1814 ft 92 kts 354°
2026-04-20 17:27 43.05215 -81.15959 1961 ft 95 kts 41°
2026-04-20 17:28 43.05638 -81.15221 1995 ft 103 kts 63°
2026-04-20 17:28 43.05517 -81.14197 1832 ft 126 kts 129°
2026-04-20 17:28 43.04892 -81.13413 1897 ft 118 kts 142°
2026-04-20 17:28 43.04294 -81.12697 1997 ft 113 kts 137°
2026-04-20 17:29 43.03735 -81.11944 2008 ft 112 kts 133°
2026-04-20 17:29 43.03222 -81.11165 2034 ft 109 kts 133°
2026-04-20 17:29 43.02666 -81.10418 1971 ft 110 kts 154°
2026-04-20 17:29 43.01988 -81.10484 1784 ft 99 kts 219°
2026-04-20 17:30 43.01433 -81.11049 1607 ft 103 kts 227°
2026-04-20 17:30 43.01048 -81.11845 1457 ft 105 kts 268°
2026-04-20 17:30 43.01395 -81.12632 1238 ft 95 kts 322°
2026-04-20 17:30 43.01837 -81.13130 1158 ft 75 kts 317°
2026-04-20 17:31 43.02190 -81.13556 1035 ft 62 kts 314°
2026-04-20 17:31 43.02497 -81.13924 927 ft 55 kts 315°
2026-04-20 17:31 43.02728 -81.14205 899 ft 33 kts 320°
2026-04-20 17:31 43.03016 -81.14540 928 ft 72 kts 319°
2026-04-20 17:32 43.03439 -81.15042 1058 ft 87 kts 315°
2026-04-20 17:32 43.03888 -81.15608 1239 ft 90 kts 318°
2026-04-20 17:32 43.04375 -81.16053 1552 ft 88 kts 342°
2026-04-20 17:32 43.04941 -81.15625 1652 ft 114 kts 54°
2026-04-20 17:33 43.05248 -81.14667 1889 ft 116 kts 83°
2026-04-20 17:33 43.04824 -81.13777 1907 ft 115 kts 148°
2026-04-20 17:33 43.04209 -81.13071 1902 ft 116 kts 140°
2026-04-20 17:33 43.03599 -81.12353 1904 ft 116 kts 138°
2026-04-20 17:34 43.03254 -81.11342 1919 ft 121 kts 104°
2026-04-20 17:34 43.03035 -81.10206 1902 ft 124 kts 90°
2026-04-20 17:34 43.03139 -81.09057 1892 ft 123 kts 70°
2026-04-20 17:34 43.03402 -81.07937 1892 ft 122 kts 70°
2026-04-20 17:35 43.03655 -81.06829 1956 ft 123 kts 70°
2026-04-20 17:35 43.03889 -81.05752 2221 ft 115 kts 69°
2026-04-20 17:35 43.04109 -81.04693 2393 ft 117 kts 69°
2026-04-20 17:35 43.04345 -81.03618 2560 ft 118 kts 70°
2026-04-20 17:36 43.04581 -81.02545 2720 ft 117 kts 69°
2026-04-20 17:36 43.04804 -81.01512 3002 ft 111 kts 69°
2026-04-20 17:36 43.05007 -81.00547 3260 ft 97 kts 68°
2026-04-20 17:36 43.05157 -80.99745 3475 ft 82 kts 68°
2026-04-20 17:37 43.05313 -80.98925 3518 ft 97 kts 69°
2026-04-20 17:37 43.05516 -80.97977 3529 ft 110 kts 68°
2026-04-20 17:37 43.05755 -80.96968 3592 ft 117 kts 69°
2026-04-20 17:37 43.06024 -80.95864 3548 ft 124 kts 66°
2026-04-20 17:38 43.06296 -80.94750 3585 ft 123 kts 66°
2026-04-20 17:38 43.06574 -80.93626 3573 ft 130 kts 67°
2026-04-20 17:38 43.06854 -80.92482 3616 ft 119 kts 68°
2026-04-20 17:38 43.07065 -80.91508 3601 ft 97 kts 69°
2026-04-20 17:39 43.07229 -80.90683 3587 ft 78 kts 68°
2026-04-20 17:39 43.07344 -80.90020 3521 ft 67 kts 72°
2026-04-20 17:39 43.07437 -80.89411 3497 ft 66 kts 68°
2026-04-20 17:39 43.07529 -80.88812 3475 ft 64 kts 70°
2026-04-20 17:40 43.07683 -80.88099 3472 ft 91 kts 65°
2026-04-20 17:40 43.07905 -80.87204 3540 ft 99 kts 64°
2026-04-20 17:40 43.08092 -80.86357 3530 ft 88 kts 66°
2026-04-20 17:40 43.08221 -80.85577 3523 ft 79 kts 73°
2026-04-20 17:41 43.08311 -80.84870 3665 ft 63 kts 81°
2026-04-20 17:41 43.08112 -80.85066 1907 ft 158 kts 244°
2026-04-20 17:41 43.07767 -80.86146 1898 ft 104 kts 255°
2026-04-20 17:41 43.07690 -80.87020 1714 ft 94 kts 301°
2026-04-20 17:42 43.08034 -80.87799 1779 ft 100 kts 302°
2026-04-20 17:42 43.08376 -80.88585 2120 ft 92 kts 303°
2026-04-20 17:42 43.08700 -80.89294 2429 ft 85 kts 303°
2026-04-20 17:42 43.08990 -80.89960 2739 ft 78 kts 304°
2026-04-20 17:43 43.09264 -80.90575 3040 ft 74 kts 303°
2026-04-20 17:43 43.09514 -80.91150 3338 ft 66 kts 303°
2026-04-20 17:43 43.09747 -80.91684 3519 ft 75 kts 303°
2026-04-20 17:43 43.09676 -80.92471 3516 ft 106 kts 231°
2026-04-20 17:44 43.08928 -80.92632 3508 ft 117 kts 172°
2026-04-20 17:44 43.08135 -80.92441 3515 ft 114 kts 175°
2026-04-20 17:44 43.07361 -80.92297 3507 ft 110 kts 187°
2026-04-20 17:44 43.06608 -80.92398 3501 ft 109 kts 191°
2026-04-20 17:45 43.05926 -80.92723 3506 ft 103 kts 215°
2026-04-20 17:45 43.05270 -80.93129 3506 ft 103 kts 212°
2026-04-20 17:45 43.04631 -80.93547 3510 ft 104 kts 212°
2026-04-20 17:45 43.03979 -80.93974 3507 ft 104 kts 213°
2026-04-20 17:46 43.03316 -80.94389 3511 ft 106 kts 213°
2026-04-20 17:46 43.02638 -80.94812 3511 ft 107 kts 213°
2026-04-20 17:46 43.01966 -80.95248 3514 ft 107 kts 212°
2026-04-20 17:46 43.01305 -80.95725 3505 ft 104 kts 233°
2026-04-20 17:47 43.01285 -80.96511 3515 ft 87 kts 319°
2026-04-20 17:47 43.01758 -80.97039 3501 ft 89 kts 311°
2026-04-20 17:47 43.01769 -80.97847 3240 ft 108 kts 242°
2026-04-20 17:47 43.01256 -80.98567 3176 ft 110 kts 213°
2026-04-20 17:48 43.00508 -80.98880 3113 ft 111 kts 206°
2026-04-20 17:48 42.99889 -80.99394 3098 ft 105 kts 232°
2026-04-20 17:48 42.99262 -80.99893 3052 ft 103 kts 205°
2026-04-20 17:48 42.98627 -81.00126 3153 ft 80 kts 200°
2026-04-20 17:49 42.98129 -81.00209 3181 ft 72 kts 194°
2026-04-20 17:49 42.97624 -81.00252 3136 ft 74 kts 191°
2026-04-20 17:49 42.97185 -81.00392 3136 ft 62 kts 230°
2026-04-20 17:49 42.97235 -81.00873 3006 ft 57 kts 314°
2026-04-20 17:50 42.97507 -81.01242 2931 ft 56 kts 308°
2026-04-20 17:50 42.97686 -81.01707 2851 ft 57 kts 300°
2026-04-20 17:50 42.97797 -81.02238 2743 ft 61 kts 283°
2026-04-20 17:50 42.97840 -81.02829 2644 ft 63 kts 281°
2026-04-20 17:51 42.97907 -81.03385 2616 ft 57 kts 287°
2026-04-20 17:51 42.98068 -81.03863 2604 ft 54 kts 307°
2026-04-20 17:51 42.98241 -81.04337 2534 ft 58 kts 296°
2026-04-20 17:51 42.98398 -81.04877 2399 ft 66 kts 298°
2026-04-20 17:52 42.98629 -81.05508 2163 ft 85 kts 300°
2026-04-20 17:52 42.98873 -81.06303 1918 ft 95 kts 289°
2026-04-20 17:52 42.99104 -81.07103 1763 ft 86 kts 301°
2026-04-20 17:52 42.99441 -81.07746 1617 ft 85 kts 306°
2026-04-20 17:53 42.99713 -81.08473 1528 ft 89 kts 294°
2026-04-20 17:53 42.99963 -81.09215 1542 ft 91 kts 304°
2026-04-20 17:53 43.00187 -81.10051 1585 ft 96 kts 285°
2026-04-20 17:53 43.00316 -81.10889 1590 ft 84 kts 288°
2026-04-20 17:54 43.00562 -81.11554 1531 ft 75 kts 315°
2026-04-20 17:54 43.00940 -81.12042 1407 ft 67 kts 317°
2026-04-20 17:54 43.01247 -81.12405 1243 ft 58 kts 315°
2026-04-20 17:54 43.01527 -81.12749 1146 ft 58 kts 313°
2026-04-20 17:55 43.01840 -81.13151 1112 ft 64 kts 316°
2026-04-20 17:55 43.02175 -81.13530 1023 ft 61 kts 317°
2026-04-20 17:55 43.02486 -81.13909 923 ft 57 kts 315°
2026-04-20 17:55 43.02731 -81.14207 900 ft 34 kts 316°
2026-04-20 17:56 43.02915 -81.14439 899 ft 32 kts 313°
2026-04-20 17:56 43.02908 -81.14630 897 ft 10 kts 230°
2026-04-20 17:56 43.02904 -81.14636 897 ft 1 kts 229°
2026-04-20 17:56 43.02822 -81.14730 898 ft 21 kts 194°
2026-04-20 17:57 43.02807 -81.14749 899 ft 0 kts 33°